This is the latest recevied weather packets stored in our database for station/object SA7AHC. If no packets are shown the sender has not sent any weather packets the latest 10 day(s).
| Time | Temp. | Humidity | Pressure | Rain* | Wind** | Luminosity | Snow |
|---|---|---|---|---|---|---|---|
| 1788548257 | 12.22° C | 98% | 998.5 hPa | 0 mm | - | 0 W/m² | - |
| 1788547658 | 12.22° C | 98% | 998.4 hPa | 0 mm | - | 0 W/m² | - |
| 1788547053 | 12.22° C | 98% | 998.5 hPa | 0 mm | - | 0 W/m² | - |
| 1788546454 | 12.78° C | 98% | 998.5 hPa | 0 mm | - | 0 W/m² | - |
| 1788545851 | 12.78° C | 98% | 998.5 hPa | 0 mm | - | 0 W/m² | - |
| 1788545256 | 12.78° C | 98% | 998.7 hPa | 0 mm | - | 0 W/m² | - |
| 1788544651 | 12.78° C | 98% | 998.7 hPa | 0 mm | - | 0 W/m² | - |
| 1788544050 | 12.78° C | 98% | 998.7 hPa | 0 mm | - | 0 W/m² | - |
| 1788543449 | 12.78° C | 98% | 998.7 hPa | 0 mm | - | 0 W/m² | - |
| 1788542850 | 12.78° C | 98% | 998.7 hPa | 0 mm | - | 5 W/m² | - |
| 1788542249 | 12.78° C | 98% | 998.7 hPa | 0 mm | - | 12 W/m² | - |
| 1788541649 | 12.78° C | 98% | 998.8 hPa | 0 mm | - | 11 W/m² | - |
| 1788541049 | 12.78° C | 98% | 998.8 hPa | 0 mm | - | 9 W/m² | - |
| 1788540449 | 12.78° C | 98% | 998.5 hPa | 0 mm | - | 23 W/m² | - |
| 1788539850 | 12.78° C | 98% | 998.7 hPa | 0 mm | - | 30 W/m² | - |
| 1788539249 | 12.78° C | 98% | 998.7 hPa | 0 mm | - | 32 W/m² | - |
| 1788538649 | 12.78° C | 98% | 998.8 hPa | 0 mm | - | 28 W/m² | - |
| 1788538049 | 12.78° C | 98% | 998.8 hPa | 0 mm | - | 23 W/m² | - |
| 1788537449 | 12.78° C | 98% | 998.8 hPa | 0 mm | - | 28 W/m² | - |
| 1788536849 | 12.78° C | 98% | 998.9 hPa | 0 mm | - | 19 W/m² | - |
| 1788536250 | 12.78° C | 98% | 999 hPa | 0 mm | - | 32 W/m² | - |
| 1788535650 | 12.78° C | 98% | 999 hPa | 0 mm | - | 33 W/m² | - |
| 1788535049 | 12.78° C | 98% | 999.4 hPa | 0.25 mm | - | 63 W/m² | - |
| 1788534450 | 12.22° C | 98% | 999.6 hPa | 0.25 mm | - | 44 W/m² | - |
| 1788533849 | 12.22° C | 98% | 999.6 hPa | 0.25 mm | - | 42 W/m² | - |
* Rain latest hour (hover to see other rain measurements)
** Current wind speed in m/s (hover to see current wind gust speed)